When you browse on this site, cookies collect data to enhance your experience and personalize the content and advertising you see.
Visit our Privacy Policy to learn more. By continuing to use the site, you agree to this use of cookies and data.
  • Em Portugal
  • Lista de países
  • Para 7 dias
  • Temperatura da água
  • Mapas de satélite
  • Mapa do tempo
  • Widgets de tempo
  • user-avatar
    Iniciar Sessão

    Previsão horária em Chien

    Hoje, 16 Junho, Domingo

    Tempo Temperatura Precipitação Vento Pressão Humidade
    00:00 +23°C° 0.2 mm 0 m/s 742 mmHg 99%
    01:00 +22°C° 0.2 mm 0 m/s 742 mmHg 98%
    02:00 +24°C° 0.2 mm 1 m/s 742 mmHg 98%
    03:00 +24°C° 0.2 mm 1 m/s 742 mmHg 98%
    04:00 +24°C° 0.2 mm 1 m/s 742 mmHg 98%
    05:00 +22°C° 0 mm 0 m/s 742 mmHg 98%
    06:00 +25°C° 0 mm 1 m/s 742 mmHg 95%
    07:00 +26°C° 0 mm 1 m/s 742 mmHg 92%
    08:00 +27°C° 0 mm 1 m/s 743 mmHg 89%
    09:00 +29°C° 0.1 mm 1 m/s 743 mmHg 79%
    10:00 +31°C° 0.1 mm 1 m/s 742 mmHg 70%
    11:00 +33°C° 0.1 mm 1 m/s 742 mmHg 60%
    12:00 +32°C° 0.9 mm 1 m/s 742 mmHg 67%
    13:00 +31°C° 0.9 mm 1 m/s 741 mmHg 73%
    14:00 +30°C° 0.9 mm 1 m/s 740 mmHg 80%
    15:00 +29°C° 1.1 mm 1 m/s 740 mmHg 85%
    16:00 +28°C° 1.1 mm 1 m/s 740 mmHg 90%
    17:00 +27°C° 1.1 mm 1 m/s 740 mmHg 95%
    18:00 +26°C° 0.1 mm 1 m/s 741 mmHg 96%
    19:00 +26°C° 0.1 mm 1 m/s 742 mmHg 97%
    20:00 +25°C° 0.1 mm 1 m/s 742 mmHg 98%
    21:00 +25°C° 0 mm 1 m/s 742 mmHg 98%
    22:00 +24°C° 0 mm 1 m/s 742 mmHg 99%
    23:00 +24°C° 0 mm 1 m/s 742 mmHg 99%

    Amanhã, 17 Junho, Segunda-feira

    Tempo Temperatura Precipitação Vento Pressão Humidade
    00:00 +22°C° 0.1 mm 0 m/s 742 mmHg 99%
    01:00 +22°C° 0.1 mm 0 m/s 742 mmHg 99%
    02:00 +22°C° 0.1 mm 0 m/s 741 mmHg 99%
    03:00 +22°C° 0 mm 0 m/s 742 mmHg 99%
    04:00 +22°C° 0 mm 0 m/s 742 mmHg 99%
    05:00 +22°C° 0 mm 0 m/s 742 mmHg 99%
    06:00 +23°C° 0 mm 0 m/s 742 mmHg 96%
    07:00 +26°C° 0 mm 1 m/s 742 mmHg 93%
    08:00 +27°C° 0 mm 1 m/s 743 mmHg 90%
    09:00 +28°C° 0.3 mm 1 m/s 742 mmHg 83%
    10:00 +30°C° 0.3 mm 1 m/s 742 mmHg 75%
    11:00 +31°C° 0.3 mm 1 m/s 742 mmHg 68%
    12:00 +32°C° 0.2 mm 1 m/s 741 mmHg 67%
    13:00 +32°C° 0.2 mm 1 m/s 741 mmHg 67%
    14:00 +32°C° 0.2 mm 1 m/s 740 mmHg 67%
    15:00 +31°C° 0.2 mm 1 m/s 740 mmHg 73%
    16:00 +30°C° 0.2 mm 2 m/s 740 mmHg 80%
    17:00 +29°C° 0.2 mm 2 m/s 740 mmHg 86%
    18:00 +28°C° 0.2 mm 2 m/s 740 mmHg 90%
    19:00 +26°C° 0.2 mm 1 m/s 741 mmHg 94%
    20:00 +25°C° 0.2 mm 1 m/s 742 mmHg 98%
    21:00 +25°C° 0.1 mm 1 m/s 742 mmHg 98%
    22:00 +25°C° 0.1 mm 1 m/s 742 mmHg 98%
    23:00 +25°C° 0.1 mm 1 m/s 742 mmHg 98%

    Depois de amanhã, 18 Junho, Terça-feira

    Tempo Temperatura Precipitação Vento Pressão Humidade
    00:00 +25°C° 0.6 mm 1 m/s 742 mmHg 98%
    01:00 +25°C° 0.6 mm 1 m/s 742 mmHg 98%
    02:00 +25°C° 0.6 mm 1 m/s 742 mmHg 98%
    03:00 +22°C° 0.3 mm 0 m/s 742 mmHg 98%
    04:00 +22°C° 0.3 mm 0 m/s 742 mmHg 98%
    05:00 +22°C° 0.3 mm 0 m/s 742 mmHg 99%
    06:00 +23°C° 0.1 mm 0 m/s 742 mmHg 95%
    07:00 +26°C° 0.1 mm 1 m/s 742 mmHg 92%
    08:00 +27°C° 0.1 mm 1 m/s 743 mmHg 89%
    09:00 +29°C° 0.1 mm 1 m/s 743 mmHg 80%
    10:00 +31°C° 0.1 mm 1 m/s 742 mmHg 71%
    11:00 +33°C° 0.1 mm 1 m/s 742 mmHg 61%
    12:00 +32°C° 0.3 mm 1 m/s 742 mmHg 66%
    13:00 +31°C° 0.3 mm 1 m/s 741 mmHg 71%
    14:00 +31°C° 0.3 mm 1 m/s 741 mmHg 76%
    15:00 +30°C° 1 mm 1 m/s 741 mmHg 82%
    16:00 +28°C° 1 mm 1 m/s 741 mmHg 88%
    17:00 +27°C° 1 mm 1 m/s 741 mmHg 94%
    18:00 +26°C° 0.2 mm 1 m/s 741 mmHg 96%
    19:00 +26°C° 0.2 mm 1 m/s 742 mmHg 97%
    20:00 +25°C° 0.2 mm 1 m/s 743 mmHg 98%
    21:00 +25°C° 0 mm 1 m/s 743 mmHg 98%
    22:00 +25°C° 0 mm 1 m/s 743 mmHg 99%
    23:00 +24°C° 0 mm 1 m/s 743 mmHg 99%

    19 Junho, Quarta-feira

    Tempo Temperatura Precipitação Vento Pressão Humidade
    00:00 +22°C° 0.1 mm 0 m/s 742 mmHg 98%
    01:00 +22°C° 0.1 mm 0 m/s 742 mmHg 98%
    02:00 +22°C° 0.1 mm 0 m/s 742 mmHg 98%
    03:00 +22°C° 0 mm 0 m/s 742 mmHg 98%
    04:00 +22°C° 0 mm 0 m/s 742 mmHg 98%
    05:00 +21°C° 0 mm 0 m/s 742 mmHg 98%
    06:00 +23°C° 0 mm 0 m/s 742 mmHg 94%
    07:00 +24°C° 0 mm 0 m/s 743 mmHg 90%
    08:00 +25°C° 0 mm 0 m/s 744 mmHg 85%
    09:00 +28°C° 0 mm 0 m/s 743 mmHg 75%
    10:00 +30°C° 0 mm 0 m/s 743 mmHg 64%
    11:00 +32°C° 0 mm 0 m/s 743 mmHg 53%
    12:00 +32°C° 0 mm 0 m/s 742 mmHg 53%
    13:00 +34°C° 0 mm 1 m/s 741 mmHg 53%
    14:00 +34°C° 0 mm 1 m/s 741 mmHg 52%
    15:00 +32°C° 0.1 mm 1 m/s 741 mmHg 61%
    16:00 +31°C° 0.1 mm 1 m/s 741 mmHg 69%
    17:00 +29°C° 0.1 mm 1 m/s 741 mmHg 77%
    18:00 +28°C° 0.1 mm 1 m/s 741 mmHg 84%
    19:00 +27°C° 0.1 mm 1 m/s 742 mmHg 90%
    20:00 +25°C° 0.1 mm 1 m/s 742 mmHg 97%
    21:00 +25°C° 0 mm 1 m/s 742 mmHg 97%
    22:00 +25°C° 0 mm 1 m/s 742 mmHg 98%
    23:00 +25°C° 0 mm 1 m/s 742 mmHg 98%

    20 Junho, Quinta-feira

    Tempo Temperatura Precipitação Vento Pressão Humidade
    00:00 +25°C° 0 mm 1 m/s 742 mmHg 98%
    01:00 +23°C° 0 mm 0 m/s 742 mmHg 97%
    02:00 +23°C° 0 mm 0 m/s 742 mmHg 97%
    03:00 +22°C° 0.1 mm 0 m/s 742 mmHg 97%
    04:00 +22°C° 0.1 mm 0 m/s 742 mmHg 97%
    05:00 +22°C° 0.1 mm 0 m/s 742 mmHg 97%
    06:00 +23°C° 0.1 mm 0 m/s 742 mmHg 94%
    07:00 +24°C° 0.1 mm 0 m/s 743 mmHg 91%
    08:00 +28°C° 0.1 mm 1 m/s 743 mmHg 87%
    09:00 +28°C° 0.1 mm 0 m/s 743 mmHg 75%
    10:00 +31°C° 0.1 mm 0 m/s 743 mmHg 63%
    11:00 +33°C° 0.1 mm 0 m/s 743 mmHg 51%
    12:00 +35°C° 0.1 mm 1 m/s 742 mmHg 52%
    13:00 +34°C° 0.1 mm 1 m/s 741 mmHg 53%
    14:00 +34°C° 0.1 mm 1 m/s 741 mmHg 54%
    15:00 +32°C° 0.3 mm 2 m/s 741 mmHg 64%
    16:00 +30°C° 0.3 mm 2 m/s 741 mmHg 75%
    17:00 +28°C° 0.3 mm 2 m/s 741 mmHg 85%
    18:00 +27°C° 0 mm 2 m/s 741 mmHg 88%
    19:00 +26°C° 0 mm 2 m/s 742 mmHg 92%
    20:00 +25°C° 0 mm 1 m/s 743 mmHg 95%
    21:00 +25°C° 0 mm 1 m/s 743 mmHg 96%
    22:00 +25°C° 0 mm 1 m/s 743 mmHg 97%
    23:00 +24°C° 0 mm 1 m/s 743 mmHg 98%

    21 Junho, Sexta-feira

    Tempo Temperatura Precipitação Vento Pressão Humidade
    00:00 +24°C° 0 mm 1 m/s 742 mmHg 98%
    01:00 +22°C° 0 mm 0 m/s 742 mmHg 99%
    02:00 +22°C° 0 mm 0 m/s 742 mmHg 99%
    03:00 +22°C° 0.1 mm 0 m/s 742 mmHg 98%
    04:00 +22°C° 0.1 mm 0 m/s 742 mmHg 97%
    05:00 +23°C° 0.1 mm 0 m/s 742 mmHg 96%
    06:00 +23°C° 0.2 mm 0 m/s 742 mmHg 94%
    07:00 +24°C° 0.2 mm 0 m/s 743 mmHg 93%
    08:00 +24°C° 0.2 mm 0 m/s 743 mmHg 92%
    09:00 +29°C° 0.1 mm 1 m/s 743 mmHg 81%
    10:00 +31°C° 0.1 mm 1 m/s 743 mmHg 69%
    11:00 +33°C° 0.1 mm 1 m/s 743 mmHg 57%
    12:00 +33°C° 0.2 mm 1 m/s 742 mmHg 59%
    13:00 +33°C° 0.2 mm 1 m/s 741 mmHg 60%
    14:00 +32°C° 0.2 mm 1 m/s 740 mmHg 62%
    15:00 +31°C° 0.8 mm 1 m/s 740 mmHg 70%
    16:00 +29°C° 0.8 mm 2 m/s 740 mmHg 79%
    17:00 +28°C° 0.8 mm 2 m/s 740 mmHg 88%
    18:00 +27°C° 0.1 mm 2 m/s 741 mmHg 90%
    19:00 +26°C° 0.1 mm 2 m/s 742 mmHg 93%
    20:00 +25°C° 0.1 mm 2 m/s 743 mmHg 95%
    21:00 +25°C° 0 mm 2 m/s 743 mmHg 95%
    22:00 +25°C° 0 mm 1 m/s 743 mmHg 96%
    23:00 +25°C° 0 mm 1 m/s 743 mmHg 97%
    Mostrar mais